Weather History for Metropolis, IL

Change the Weather History Date:

Sunday, February 17, 2013

  Actual Average (KPAH) Record (KPAH)
Temperature  
Mean Temperature 32 °F 40 °F  
Max Temperature 47 °F 50 °F 70 °F (1986)
Min Temperature 18 °F 30 °F -5 °F (1958)
Degree Days  
Heating Degree Days 32 25  
Month to date heating degree days 465  
Since 1 July heating degree days 3038  
Cooling Degree Days 0 0  
Month to date cooling degree days 0  
Year to date cooling degree days 0  
Moisture  
Dew Point 20 °F    
Average Humidity 59    
Maximum Humidity 91    
Minimum Humidity 34    
Precipitation  
Precipitation 0.00 in 0.13 in 2.88 in (1976)
Month to date precipitation 2.38  
Year to date precipitation 6.06  
Snow  
Snow 0.00 in 0.10 in 1.60 in (1987)
Month to date snowfall 2.1  
Since 1 July snowfall 7.4  
Snow Depth -    
Sea Level Pressure  
Sea Level Pressure 30.16 in    
Wind  
Wind Speed 3 mph (SE)    
Max Wind Speed 12 mph    
Max Gust Speed 16 mph    
Visibility 10 miles    
Events      
T = Trace of Precipitation, MM = Missing Value Source: NWS Daily Summary

Daily Weather History Graph

Daily Weather History Graph

Search for Another Location

Airport:

Trip Planner

Search our weather history database for the weather conditions in past years. The results will help you decide how hot, cold, wet, or windy it might be!

Date:

Astronomy

Feb. 17, 2013 Rise Set
Actual Time 6:41 AM CST 5:37 PM CST
Civil Twilight 6:14 AM CST 6:03 PM CST
Nautical Twilight 5:44 AM CST 6:34 PM CST
Astronomical Twilight 5:14 AM CST 7:04 PM CST
Moon 10:44 AM CST (2/17) 12:22 AM CST (2/17)
Length of Visible Light 11h 49m
Length of Day
10h 56m
Waxing Crescent, 49% of the Moon is Illuminated
Feb 17
Waxing Crescent
Feb 17
First Quarter
Feb 25
Full
Mar 4
Last Quarter
Mar 11
New

Hourly Weather History & Observations

Time (CST) Temp. Windchill Dew Point Humidity Pressure Visibility Wind Dir Wind Speed Gust Speed Precip Events Conditions
12:15 AM 25.3 °F 19.7 °F 14.9 °F 65% 30.20 in 10.0 mi SW 4.6 mph - N/A   Clear
12:35 AM 26.8 °F - 14.0 °F 59% 30.20 in 10.0 mi Calm Calm - N/A   Clear
12:55 AM 27.5 °F - 13.6 °F 56% 30.19 in 10.0 mi Calm Calm - N/A   Clear
1:15 AM 26.1 °F - 14.0 °F 60% 30.19 in 10.0 mi Calm Calm - N/A   Clear
1:35 AM 21.0 °F - 16.5 °F 83% 30.19 in 10.0 mi Calm Calm - N/A   Clear
1:55 AM 20.5 °F - 16.7 °F 85% 30.19 in 10.0 mi Calm Calm - N/A   Clear
2:15 AM 20.3 °F - 17.1 °F 87% 30.19 in 10.0 mi Calm Calm - N/A   Clear
2:35 AM 19.4 °F - 16.5 °F 89% 30.19 in 10.0 mi Calm Calm - N/A   Clear
2:55 AM 19.8 °F - 16.7 °F 88% 30.19 in 10.0 mi Calm Calm - N/A   Clear
3:15 AM 19.0 °F - 15.8 °F 87% 30.19 in 10.0 mi Calm Calm - N/A   Clear
3:35 AM 19.2 °F - 16.5 °F 89% 30.20 in 10.0 mi Calm Calm - N/A   Clear
4:15 AM 18.5 °F - 15.3 °F 87% 30.20 in 10.0 mi Calm Calm - N/A   Clear
4:35 AM 19.0 °F - 16.3 °F 89% 30.20 in 10.0 mi Calm Calm - N/A   Clear
4:55 AM 18.3 °F - 15.6 °F 89% 30.21 in 10.0 mi Calm Calm - N/A   Clear
5:15 AM 18.5 °F - 16.2 °F 91% 30.21 in 10.0 mi Calm Calm - N/A   Mostly Cloudy
5:35 AM 19.0 °F - 15.8 °F 87% 30.21 in 10.0 mi Calm Calm - N/A   Overcast
5:55 AM 19.2 °F - 16.3 °F 89% 30.21 in 10.0 mi Calm Calm - N/A   Overcast
6:15 AM 20.1 °F - 17.4 °F 89% 30.22 in 10.0 mi Calm Calm - N/A   Overcast
6:35 AM 19.9 °F 14.9 °F 17.2 °F 89% 30.22 in 10.0 mi ENE 3.5 mph - N/A   Overcast
6:55 AM 20.8 °F - 18.1 °F 89% 30.22 in 7.0 mi Calm Calm - N/A   Overcast
7:15 AM 21.9 °F - 18.9 °F 88% 30.22 in 7.0 mi Calm Calm - N/A   Overcast
7:35 AM 23.7 °F - 19.6 °F 84% 30.23 in 10.0 mi Calm Calm - N/A   Overcast
7:55 AM 25.5 °F - 21.0 °F 83% 30.24 in 10.0 mi Calm Calm - N/A   Overcast
8:15 AM 27.3 °F - 22.8 °F 83% 30.24 in 10.0 mi Calm Calm - N/A   Overcast
8:35 AM 28.8 °F 25.0 °F 23.5 °F 81% 30.25 in 10.0 mi SE 3.5 mph - N/A   Overcast
8:55 AM 30.9 °F 27.5 °F 24.3 °F 76% 30.24 in 10.0 mi East 3.5 mph - N/A   Overcast
9:15 AM 32.0 °F - 25.3 °F 76% 30.24 in 10.0 mi Calm Calm - N/A   Overcast
9:35 AM 32.9 °F 29.8 °F 25.9 °F 75% 30.24 in 10.0 mi ESE 3.5 mph - N/A   Overcast
9:55 AM 35.1 °F 32.2 °F 24.6 °F 66% 30.24 in 10.0 mi SE 3.5 mph - N/A   Overcast
10:15 AM 36.9 °F 32.2 °F 23.4 °F 58% 30.24 in 10.0 mi ESE 5.8 mph - N/A   Overcast
10:35 AM 37.9 °F 35.5 °F 22.8 °F 55% 30.24 in 10.0 mi East 3.5 mph - N/A   Overcast
10:55 AM 39.2 °F 37.0 °F 24.3 °F 55% 30.24 in 10.0 mi SSE 3.5 mph - N/A   Overcast
11:15 AM 39.7 °F 36.5 °F 24.8 °F 55% 30.23 in 10.0 mi ESE 4.6 mph - N/A   Overcast
11:35 AM 41.5 °F 37.8 °F 24.6 °F 51% 30.22 in 10.0 mi SE 5.8 mph - N/A   Overcast
11:55 AM 42.3 °F 38.6 °F 23.5 °F 48% 30.21 in 10.0 mi SE 5.8 mph - N/A   Overcast
12:15 PM 42.8 °F 39.3 °F 22.3 °F 44% 30.20 in 10.0 mi SE 5.8 mph - N/A   Overcast
12:35 PM 44.4 °F 40.0 °F 19.6 °F 37% 30.19 in 10.0 mi South 8.1 mph - N/A   Overcast
12:55 PM 45.0 °F 40.6 °F 19.6 °F 36% 30.18 in 10.0 mi South 8.1 mph 16.1 mph N/A   Overcast
1:15 PM 45.5 °F 41.8 °F 19.4 °F 35% 30.17 in 10.0 mi South 6.9 mph - N/A   Overcast
1:35 PM 45.0 °F 41.2 °F 18.7 °F 35% 30.16 in 10.0 mi SSW 6.9 mph - N/A   Overcast
1:55 PM 46.9 °F - 19.8 °F 34% 30.15 in 10.0 mi South 11.5 mph - N/A   Overcast
2:15 PM 45.7 °F 42.0 °F 19.9 °F 36% 30.14 in 10.0 mi South 6.9 mph - N/A   Overcast
2:35 PM 45.5 °F 41.3 °F 19.4 °F 35% 30.14 in 10.0 mi SSE 8.1 mph - N/A   Overcast
2:55 PM 46.8 °F - 20.3 °F 35% 30.13 in 10.0 mi SSE 10.4 mph - N/A   Scattered Clouds
3:15 PM 47.1 °F - 19.8 °F 34% 30.13 in 10.0 mi South 5.8 mph - N/A   Scattered Clouds
3:35 PM 47.5 °F - 20.3 °F 34% 30.12 in 10.0 mi SSE 8.1 mph - N/A   Clear
3:55 PM 46.8 °F - 19.8 °F 34% 30.11 in 10.0 mi South 5.8 mph - N/A   Clear
4:15 PM 47.3 °F - 19.9 °F 34% 30.11 in 10.0 mi SSE 4.6 mph - N/A   Clear
4:35 PM 46.8 °F - 19.6 °F 34% 30.10 in 10.0 mi SSE 6.9 mph - N/A   Clear
4:55 PM 46.4 °F 43.5 °F 19.6 °F 34% 30.11 in 10.0 mi SSE 5.8 mph - N/A   Clear
5:15 PM 45.7 °F 43.4 °F 20.3 °F 37% 30.10 in 10.0 mi SE 4.6 mph - N/A   Clear
5:35 PM 44.1 °F 41.5 °F 21.0 °F 40% 30.10 in 10.0 mi SE 4.6 mph - N/A   Clear
5:55 PM 43.0 °F 39.5 °F 21.6 °F 43% 30.09 in 10.0 mi SE 5.8 mph - N/A   Clear
6:15 PM 42.4 °F 39.6 °F 21.7 °F 44% 30.10 in 10.0 mi SE 4.6 mph - N/A   Clear
6:35 PM 41.5 °F 38.6 °F 21.9 °F 46% 30.10 in 10.0 mi SE 4.6 mph - N/A   Clear
6:55 PM 41.5 °F 38.6 °F 21.9 °F 46% 30.09 in 10.0 mi SE 4.6 mph - N/A   Clear
7:15 PM 41.0 °F 39.0 °F 22.1 °F 47% 30.09 in 10.0 mi SE 3.5 mph - N/A   Clear
7:35 PM 41.0 °F 38.0 °F 21.9 °F 47% 30.10 in 10.0 mi SE 4.6 mph - N/A   Clear
7:55 PM 41.2 °F 37.3 °F 21.4 °F 45% 30.10 in 10.0 mi SE 5.8 mph - N/A   Clear
8:15 PM 40.3 °F 36.3 °F 21.7 °F 48% 30.09 in 10.0 mi SE 5.8 mph - N/A   Clear
8:35 PM 40.5 °F 36.5 °F 21.2 °F 46% 30.10 in 10.0 mi SE 5.8 mph - N/A   Clear
8:55 PM 40.1 °F 36.1 °F 21.2 °F 47% 30.10 in 10.0 mi SE 5.8 mph - N/A   Clear
9:15 PM 39.7 °F 35.6 °F 21.4 °F 48% 30.09 in 10.0 mi SE 5.8 mph - N/A   Clear
9:35 PM 39.6 °F 35.4 °F 21.6 °F 49% 30.08 in 10.0 mi SE 5.8 mph - N/A   Clear
9:55 PM 39.4 °F 35.2 °F 21.9 °F 50% 30.08 in 10.0 mi SE 5.8 mph - N/A   Clear
10:15 PM 39.0 °F 35.7 °F 21.9 °F 50% 30.08 in 10.0 mi SE 4.6 mph - N/A   Clear
10:35 PM 38.7 °F 35.2 °F 21.9 °F 51% 30.07 in 10.0 mi SE 4.6 mph - N/A   Clear
10:55 PM 38.5 °F 35.0 °F 22.1 °F 52% 30.06 in 10.0 mi SE 4.6 mph - N/A   Clear
11:15 PM 38.5 °F 35.0 °F 22.1 °F 52% 30.06 in 10.0 mi SE 4.6 mph - N/A   Clear
11:35 PM 38.3 °F 35.9 °F 22.6 °F 53% 30.05 in 10.0 mi SE 3.5 mph - N/A   Clear
11:55 PM 38.5 °F 35.0 °F 22.8 °F 53% 30.05 in 10.0 mi SE 4.6 mph - N/A   Clear